[[{"header":{"parameterUnit":"m.s-1","parameterCategory":2,"la1":30.2991,"la2":30.254,"lo1":-89.0895,"lo2":-89.0444,"dy":0.0017,"dx":0.0017,"nx":28,"ny":28,"refTime":"2026-02-15T03:00:00:Z","depth":"0","parameterNumber":2,"parameterNumberName":"U-component_of_CURRENTS"},"data":[0,0,0,0,0,0,0,0,0,0,0,0,0,0,0,0,0,0,0,0,0,0,0,0,0,0,0,0,0,0,0,0,0,0,0,0,0,0,0,0,0,0,0,0,0,0,0,0,0,0,0,0,0,0,0,0,0,0,-0.2676,-0.2676,0,-0.2704,-0.2704,-0.2704,-0.2679,-0.2678,-0.2677,-0.2677,-0.265,-0.265,-0.265,0,0,0,0,0,0,0,0,0,0,0,0,0,-0.2597,-0.2598,-0.2676,-0.2676,-0.2677,-0.2704,-0.2704,-0.2704,-0.2679,-0.2678,-0.2677,-0.2676,-0.265,-0.265,-0.265,0,0,0,0,0,0,0,0,0,0,0,0,0,-0.2626,-0.2599,-0.2676,-0.2669,-0.2669,-0.2704,-0.2704,-0.2704,-0.2679,-0.2678,-0.2677,-0.2676,-0.265,-0.265,-0.265,-0.2675,0,0,-0.2651,-0.2651,0,0,0,0,0,0,0,0,-0.2625,-0.2629,-0.267,-0.267,-0.267,-0.2689,-0.2667,-0.2693,-0.268,-0.2673,-0.2677,-0.2675,-0.2661,-0.266,-0.2665,-0.2674,-0.2673,-0.2651,-0.2651,-0.2651,-0.2651,0,0,0,0,0,0,0,-0.2623,-0.2628,-0.2684,-0.2671,-0.2671,-0.2664,-0.2667,-0.2671,-0.267,-0.2674,-0.2672,-0.268,-0.266,-0.2665,-0.2664,-0.2672,-0.2651,-0.2651,-0.2651,-0.2651,-0.2682,-0.2683,0,0,0,0,0,0,-0.2626,-0.2626,-0.2684,-0.2686,-0.2647,-0.2667,-0.267,-0.2682,-0.2671,-0.267,-0.2681,-0.2679,-0.2666,-0.2664,-0.2663,-0.2678,-0.2651,-0.2651,-0.2651,-0.2682,-0.2683,-0.2683,0,0,0,0,0,0,-0.2624,-0.2631,-0.2683,-0.2658,-0.2664,-0.267,-0.2684,-0.2683,-0.2683,-0.2678,-0.2674,-0.2681,-0.2665,-0.2663,-0.2666,-0.2677,-0.2651,-0.2651,-0.2681,-0.2682,-0.2683,-0.2715,0,0,0,0,0,0,-0.2622,-0.263,-0.2635,-0.2658,-0.2666,-0.2704,-0.2685,-0.2685,-0.2691,-0.2688,-0.2677,-0.2674,-0.2663,-0.2666,-0.2666,-0.2676,-0.2651,-0.268,-0.2681,-0.2683,-0.2713,-0.2718,-0.2721,0,0,0,0,0,-0.2619,-0.2634,-0.2636,-0.2642,-0.2675,-0.2705,-0.2709,-0.2706,-0.2693,-0.27,-0.2689,-0.2674,-0.2675,-0.2667,-0.2667,-0.2677,-0.2679,-0.2681,-0.2682,-0.2712,-0.2717,-0.2721,0,0,0,0,0,0,-0.26,-0.2634,-0.2636,-0.2659,-0.2681,-0.2702,-0.2708,-0.2709,-0.2709,-0.27,-0.2686,-0.2683,-0.269,-0.2683,-0.2674,-0.2691,-0.2674,-0.2676,-0.2696,-0.2701,-0.2705,-0.2708,-0.2651,0,0,0,0,0,-0.2601,-0.2618,-0.2651,-0.2666,-0.2679,-0.2693,-0.2703,-0.2707,-0.2714,-0.2712,-0.2706,-0.2699,-0.2701,-0.2698,-0.2699,-0.2711,-0.2695,-0.2718,-0.2722,-0.2725,-0.2728,-0.2723,-0.2726,-0.2689,-0.2689,-0.2689,0,0,-0.2595,-0.2617,-0.2625,-0.2663,-0.2676,-0.2705,-0.2695,-0.2715,-0.2733,-0.271,-0.2721,-0.2714,-0.2708,-0.2719,-0.2721,-0.2711,-0.2725,-0.2727,-0.273,-0.2731,-0.2725,-0.2728,-0.2731,-0.269,-0.269,-0.269,0,0,-0.2599,-0.2616,-0.2634,-0.266,-0.2691,-0.2707,-0.2714,-0.274,-0.2742,-0.276,-0.2746,-0.2745,-0.2749,-0.2747,-0.2746,-0.2774,-0.2747,-0.2774,-0.2795,-0.279,-0.2793,-0.2795,-0.2767,-0.2767,-0.2775,-0.2775,-0.2775,0,-0.2589,-0.2619,-0.2642,-0.2673,-0.2693,-0.271,-0.2736,-0.2753,-0.2773,-0.2779,-0.2765,-0.2774,-0.2764,-0.2779,-0.2785,-0.2783,-0.2768,-0.2776,-0.2794,-0.2796,-0.2798,-0.2769,-0.2769,-0.2777,-0.2776,-0.2776,-0.2776,0,-0.2612,-0.2638,-0.2652,-0.2696,-0.2723,-0.2747,-0.2783,-0.2801,-0.2803,-0.2814,-0.2827,-0.2818,-0.2819,-0.282,-0.2809,-0.2822,-0.2803,-0.28,-0.278,-0.2804,-0.2772,-0.277,-0.2779,-0.2778,-0.2778,-0.2777,0,0,-0.2578,-0.2652,-0.2655,-0.2678,-0.2736,-0.2758,-0.2798,-0.2834,-0.285,-0.2864,-0.2876,-0.2881,-0.287,-0.2869,-0.2857,-0.2853,-0.2844,-0.2832,-0.2831,-0.2801,-0.2816,-0.2751,-0.2743,-0.2845,-0.2845,-0.2846,-0.2785,0,-0.2581,-0.2635,-0.2675,-0.272,-0.2748,-0.279,-0.2826,-0.2862,-0.2879,-0.2898,-0.2897,-0.2902,-0.2892,-0.2885,-0.2884,-0.2859,-0.2844,-0.286,-0.2802,-0.28,-0.2736,-0.2741,-0.2649,-0.2583,-0.2783,-0.2783,-0.2782,0,-0.2579,-0.2619,-0.2663,-0.2732,-0.2748,-0.2778,-0.2829,-0.2865,-0.2906,-0.2919,-0.2933,-0.2932,-0.2934,-0.2914,-0.2889,-0.2899,-0.2859,-0.2835,-0.2832,-0.276,-0.2732,-0.2596,-0.2573,-0.2554,-0.278,-0.278,-0.278,0,-0.2527,-0.2604,-0.2633,-0.2659,-0.2743,-0.2765,-0.2803,-0.2859,-0.2889,-0.2923,-0.2941,-0.2949,-0.2943,-0.2917,-0.2873,-0.2879,-0.2831,-0.2831,-0.2733,-0.2727,-0.2631,-0.2617,-0.2579,-0.2802,-0.2802,-0.2802,-0.2802,0,-0.2506,-0.2527,-0.2609,-0.2626,-0.2661,-0.2731,-0.2767,-0.2809,-0.2869,-0.2892,-0.2936,-0.2947,-0.2945,-0.2922,-0.2878,-0.2796,-0.2832,-0.2731,-0.2709,-0.2638,-0.2626,-0.259,-0.2605,-0.28,-0.28,-0.28,-0.2801,0,-0.2434,-0.2492,-0.2528,-0.2612,-0.2634,-0.2653,-0.2742,-0.2765,-0.2839,-0.2869,-0.288,-0.294,-0.2909,-0.2889,-0.2835,-0.2788,-0.2669,-0.2679,-0.2585,-0.2553,-0.2442,-0.2462,-0.2381,-0.2315,-0.2561,-0.2559,-0.2558,0,-0.2399,-0.241,-0.2491,-0.2505,-0.2536,-0.2586,-0.2615,-0.2719,-0.275,-0.2851,-0.2849,-0.2866,-0.284,-0.2759,-0.2686,-0.2591,-0.2577,-0.245,-0.2447,-0.2418,-0.2425,-0.2431,-0.2382,-0.2327,-0.2324,-0.2321,-0.2319,0,-0.2317,-0.2344,-0.2371,-0.2407,-0.2435,-0.2482,-0.2534,-0.2566,-0.2676,-0.2716,-0.2748,-0.2743,-0.27,-0.2581,-0.2485,-0.2416,-0.2391,-0.2388,-0.2387,-0.226,-0.2235,-0.2166,-0.2381,-0.2294,-0.2296,-0.2298,-0.23,-0.2301,-0.2231,-0.2229,-0.2262,-0.2279,-0.2316,-0.234,-0.2331,-0.2406,-0.2443,-0.2467,-0.2564,-0.2526,-0.2487,-0.2348,-0.2284,-0.2158,-0.2204,-0.2094,-0.2125,-0.2136,-0.2062,-0.2213,-0.2089,-0.209,-0.2092,-0.2093,-0.2093,0,-0.2111,-0.2118,-0.2131,-0.2149,-0.213,-0.2198,-0.2237,-0.2203,-0.2187,-0.2259,-0.2261,-0.2254,-0.2141,-0.2115,-0.2013,-0.1926,-0.1882,-0.1882,-0.1882,-0.1846,-0.1993,-0.1973,-0.1784,-0.1784,-0.1784,-0.1784,-0.1784,-0.1784,-0.2046,-0.2006,-0.2015,-0.1943,-0.1951,-0.1879,-0.1866,-0.1842,-0.186,-0.1841,-0.1872,-0.1946,-0.1946,-0.2035,-0.1909,-0.182,-0.1772,-0.1717,-0.1737,-0.1871,-0.1895,-0.1917,-0.1901,-0.17,-0.17,-0.1525,-0.1524,-0.1523]},{"header":{"parameterUnit":"m.s-1","parameterCategory":2,"la1":30.2991,"la2":30.254,"lo1":-89.0895,"lo2":-89.0444,"dy":0.0017,"dx":0.0017,"nx":28,"ny":28,"refTime":"2026-02-15T03:00:00:Z","depth":"0","parameterNumber":3,"parameterNumberName":"V-component_of_CURRENTS"},"data":[0,0,0,0,0,0,0,0,0,0,0,0,0,0,0,0,0,0,0,0,0,0,0,0,0,0,0,0,0,0,0,0,0,0,0,0,0,0,0,0,0,0,0,0,0,0,0,0,0,0,0,0,0,0,0,0,0,0,-0.0264,-0.0263,0,-0.0194,-0.0194,-0.0193,-0.0143,-0.0143,-0.0142,-0.0142,-0.0031,-0.0029,-0.0026,0,0,0,0,0,0,0,0,0,0,0,0,0,-0.0302,-0.0301,-0.0264,-0.0263,-0.0262,-0.0195,-0.0193,-0.0192,-0.0143,-0.0143,-0.0142,-0.0142,-0.0032,-0.0029,-0.0026,0,0,0,0,0,0,0,0,0,0,0,0,0,-0.0263,-0.0301,-0.0264,-0.0231,-0.0227,-0.0195,-0.0193,-0.0192,-0.0143,-0.0143,-0.0142,-0.0142,-0.0033,-0.0029,-0.0025,-0.0008,0,0,-0.0013,-0.0011,0,0,0,0,0,0,0,0,-0.0265,-0.0261,-0.0236,-0.0233,-0.0229,-0.0178,-0.0166,-0.0129,-0.0143,-0.0173,-0.0142,-0.0142,-0.0078,-0.007,-0.0056,-0.0003,0.0002,-0.0012,-0.001,-0.0008,-0.0007,0,0,0,0,0,0,0,-0.0268,-0.0264,-0.0235,-0.0236,-0.0231,-0.0201,-0.0196,-0.0159,-0.0127,-0.0171,-0.0167,-0.0162,-0.0075,-0.006,-0.0053,0.0004,-0.0013,-0.0009,-0.0006,-0.0005,0.0083,0.0083,0,0,0,0,0,0,-0.0283,-0.0267,-0.0237,-0.0233,-0.0248,-0.0202,-0.0195,-0.0194,-0.0128,-0.0118,-0.0163,-0.016,-0.0068,-0.0058,-0.0049,-0.0021,-0.0008,-0.0004,-0.0002,0.0083,0.0083,0.0083,0,0,0,0,0,0,-0.0284,-0.0281,-0.024,-0.0249,-0.0242,-0.0202,-0.02,-0.0193,-0.0178,-0.0122,-0.0112,-0.0157,-0.0067,-0.0055,-0.0017,-0.0016,-0.0003,0.0001,0.0084,0.0083,0.0083,0.0034,0,0,0,0,0,0,-0.0285,-0.0282,-0.0287,-0.025,-0.0242,-0.0228,-0.0201,-0.0192,-0.0176,-0.0172,-0.0114,-0.0103,-0.0066,-0.0024,-0.0014,-0.001,0.0004,0.0084,0.0083,0.0083,0.0036,0.0032,0.0029,0,0,0,0,0,-0.0287,-0.03,-0.0287,-0.0284,-0.025,-0.0228,-0.0221,-0.019,-0.0177,-0.0175,-0.0133,-0.0105,-0.0018,-0.0021,-0.0008,-0.0004,0.0084,0.0084,0.0083,0.0037,0.0033,0.0029,0,0,0,0,0,0,-0.0319,-0.0295,-0.0281,-0.0285,-0.0261,-0.0221,-0.0218,-0.0196,-0.0161,-0.0158,-0.0103,-0.009,-0.0057,-0.0026,-0.003,0.002,0.0037,0.0039,-0.0003,-0.0006,-0.001,-0.0025,0.0008,0,0,0,0,0,-0.0329,-0.0332,-0.03,-0.0303,-0.0295,-0.0257,-0.0245,-0.0224,-0.019,-0.0174,-0.0132,-0.0088,-0.0048,-0.0025,0.0013,0.0041,0.0081,0.0051,0.0048,0.0045,0.004,0.0104,0.0106,0.0082,0.0082,0.0082,0,0,-0.0342,-0.033,-0.033,-0.031,-0.0289,-0.0285,-0.0248,-0.0236,-0.0226,-0.0167,-0.0141,-0.0099,-0.0044,-0.0012,0.0006,0.0015,0.0072,0.0045,0.0042,0.0039,0.0104,0.0106,0.0108,0.0082,0.0082,0.0082,0,0,-0.0376,-0.0359,-0.0375,-0.0359,-0.0336,-0.0309,-0.0309,-0.0271,-0.0247,-0.0219,-0.0173,-0.0129,-0.0074,-0.0029,-0.0001,0.0,0.0051,0.0008,-0.0016,0.0045,0.0048,0.0051,0.0103,0.011,0.0009,0.0009,0.0009,0,-0.0394,-0.0408,-0.0375,-0.0384,-0.0376,-0.0325,-0.0336,-0.0304,-0.0257,-0.0234,-0.022,-0.0125,-0.0081,-0.0028,-0.003,-0.0006,0.0031,-0.0006,0.0041,0.0045,0.0049,0.0101,0.011,0.0006,0.0007,0.0007,0.0007,0,-0.0438,-0.0446,-0.0454,-0.0447,-0.0431,-0.0433,-0.0386,-0.0363,-0.0328,-0.0288,-0.0232,-0.0166,-0.011,-0.0088,-0.0058,-0.0011,0.0008,0.0028,0.005,0.0048,0.0104,0.0114,0.0003,0.0004,0.0005,0.0005,0,0,-0.0486,-0.0488,-0.0489,-0.0499,-0.0466,-0.046,-0.0436,-0.0397,-0.0377,-0.0318,-0.0282,-0.0209,-0.0167,-0.0132,-0.0081,-0.0028,0.0031,0.0002,0.0007,0.005,0.0161,0.02,0.0216,0.0059,0.0061,0.0062,0.0188,0,-0.0532,-0.0574,-0.055,-0.0574,-0.059,-0.0533,-0.0515,-0.0467,-0.0411,-0.0361,-0.0274,-0.0224,-0.0184,-0.0156,-0.0096,0.0002,0.0056,-0.0006,0.0159,0.0163,0.0197,0.0229,0.0257,0.0375,0.0199,0.0201,0.0202,0,-0.0583,-0.0605,-0.0646,-0.0644,-0.0643,-0.0642,-0.0597,-0.0572,-0.0479,-0.0433,-0.0358,-0.0285,-0.0193,-0.0164,0.0003,-0.0039,0.0048,0.0124,0.0132,0.0193,0.0223,0.035,0.0401,0.0548,0.0219,0.0217,0.0216,0,-0.0645,-0.0667,-0.0705,-0.0706,-0.0693,-0.0691,-0.0672,-0.0598,-0.0572,-0.0475,-0.0438,-0.0316,-0.0248,-0.0124,0.0035,0.002,0.0223,0.0226,0.0345,0.0349,0.0418,0.0425,0.063,0.0337,0.0337,0.0337,0.0336,0,-0.0706,-0.0734,-0.0741,-0.0764,-0.0797,-0.0756,-0.0758,-0.0715,-0.0643,-0.0608,-0.0484,-0.0421,-0.0235,-0.0093,0.0035,0.0234,0.023,0.0351,0.0391,0.0401,0.0405,0.0571,0.0615,0.0341,0.034,0.0339,0.0339,0,-0.0769,-0.0773,-0.0821,-0.0829,-0.0833,-0.0855,-0.0834,-0.0825,-0.0745,-0.0692,-0.0664,-0.0486,-0.0291,-0.0096,0.0129,0.0241,0.0512,0.0484,0.048,0.0517,0.0745,0.0782,0.1006,0.1083,0.0631,0.0633,0.0634,0,-0.0807,-0.084,-0.0883,-0.0915,-0.0924,-0.0944,-0.0953,-0.0891,-0.0868,-0.0728,-0.0703,-0.05,-0.0338,0.002,0.0261,0.0515,0.0613,0.0675,0.0649,0.0778,0.085,0.0873,0.0922,0.0724,0.0726,0.0727,0.0729,0,-0.0875,-0.0889,-0.0928,-0.1004,-0.1034,-0.106,-0.106,-0.1059,-0.0966,-0.089,-0.0745,-0.06,-0.0234,0.0091,0.0428,0.0574,0.0779,0.0717,0.0867,0.0955,0.098,0.1065,0.061,0.0745,0.0743,0.0742,0.0741,0.074,-0.0916,-0.0964,-0.1018,-0.1085,-0.1126,-0.1159,-0.117,-0.1136,-0.1087,-0.0945,-0.0795,-0.0539,-0.0062,0.0431,0.0604,0.0976,0.0926,0.1076,0.1115,0.1131,0.1197,0.0767,0.0933,0.0933,0.0932,0.0932,0.0931,0,-0.0965,-0.1018,-0.1093,-0.1166,-0.1223,-0.122,-0.1223,-0.1193,-0.1126,-0.0954,-0.0776,-0.0241,0.0219,0.0645,0.1173,0.1367,0.1396,0.1462,0.1512,0.1546,0.1197,0.1193,0.1403,0.1402,0.1402,0.1402,0.1402,0.1402,-0.099,-0.1073,-0.1116,-0.1227,-0.1275,-0.131,-0.1305,-0.1227,-0.1095,-0.0788,-0.0481,-0.0223,0.0399,0.124,0.1723,0.176,0.1907,0.189,0.1972,0.1738,0.1704,0.1673,0.1683,0.1992,0.1993,0.2311,0.2315,0.2317]}],[{"header":{"parameterUnit":"m.s-1","parameterCategory":2,"la1":30.2991,"la2":30.254,"lo1":-89.0895,"lo2":-89.0444,"dy":0.0017,"dx":0.0017,"nx":28,"ny":28,"refTime":"2026-02-15T03:00:00:Z","depth":"2","parameterNumber":2,"parameterNumberName":"U-component_of_CURRENTS"},"data":[0,0,0,0,0,0,0,0,0,0,0,0,0,0,0,0,0,0,0,0,0,0,0,0,0,0,0,0,0,0,0,0,0,0,0,0,0,0,0,0,0,0,0,0,0,0,0,0,0,0,0,0,0,0,0,0,0,0,-0.2407,-0.2407,0,-0.2434,-0.2434,-0.2435,-0.2421,-0.242,-0.242,-0.2419,-0.2404,-0.2404,-0.2405,0,0,0,0,0,0,0,0,0,0,0,0,0,-0.2336,-0.2337,-0.2407,-0.2407,-0.2408,-0.2434,-0.2434,-0.2435,-0.2421,-0.242,-0.242,-0.2419,-0.2404,-0.2404,-0.2405,0,0,0,0,0,0,0,0,0,0,0,0,0,-0.2363,-0.2337,-0.2407,-0.2406,-0.2406,-0.2434,-0.2434,-0.2435,-0.2421,-0.242,-0.2419,-0.2419,-0.2404,-0.2404,-0.2405,-0.242,0,0,-0.2405,-0.2405,0,0,0,0,0,0,0,0,-0.2361,-0.2365,-0.2405,-0.2406,-0.2406,-0.2425,-0.2404,-0.2429,-0.2421,-0.2413,-0.2419,-0.2418,-0.241,-0.2409,-0.2413,-0.242,-0.2419,-0.2405,-0.2405,-0.2405,-0.2405,0,0,0,0,0,0,0,-0.236,-0.2364,-0.2415,-0.2406,-0.2407,-0.2402,-0.2405,-0.2409,-0.2413,-0.2414,-0.2413,-0.242,-0.2409,-0.2413,-0.2413,-0.2419,-0.2405,-0.2405,-0.2405,-0.2405,-0.2439,-0.2439,0,0,0,0,0,0,-0.2362,-0.2363,-0.2414,-0.2416,-0.2384,-0.2404,-0.2407,-0.2418,-0.2413,-0.2413,-0.2421,-0.242,-0.2413,-0.2413,-0.2412,-0.2434,-0.2405,-0.2405,-0.2405,-0.2438,-0.2439,-0.244,0,0,0,0,0,0,-0.2361,-0.2367,-0.2413,-0.2391,-0.2397,-0.2407,-0.2419,-0.2419,-0.2425,-0.242,-0.2418,-0.2426,-0.2413,-0.2412,-0.2419,-0.2433,-0.2405,-0.2405,-0.2437,-0.2438,-0.2439,-0.2476,0,0,0,0,0,0,-0.2359,-0.2366,-0.2372,-0.2392,-0.2399,-0.2435,-0.242,-0.242,-0.2432,-0.243,-0.2424,-0.2422,-0.2412,-0.2419,-0.242,-0.2433,-0.2405,-0.2436,-0.2437,-0.2439,-0.2474,-0.2479,-0.2483,0,0,0,0,0,-0.2356,-0.2369,-0.2372,-0.2379,-0.2408,-0.2436,-0.2439,-0.244,-0.2433,-0.2441,-0.2436,-0.2422,-0.2429,-0.242,-0.242,-0.2434,-0.2435,-0.2437,-0.2439,-0.2472,-0.2478,-0.2483,0,0,0,0,0,0,-0.2339,-0.237,-0.2374,-0.2395,-0.2416,-0.2434,-0.2442,-0.2446,-0.245,-0.2445,-0.2434,-0.2432,-0.2444,-0.2436,-0.2427,-0.2449,-0.243,-0.2432,-0.2455,-0.246,-0.2465,-0.2467,-0.2405,0,0,0,0,0,-0.234,-0.2357,-0.2386,-0.2401,-0.2414,-0.2429,-0.2439,-0.2446,-0.2454,-0.2455,-0.2453,-0.245,-0.2453,-0.2454,-0.2455,-0.2469,-0.2452,-0.2477,-0.2482,-0.2485,-0.2488,-0.2481,-0.2485,-0.2446,-0.2446,-0.2446,0,0,-0.2336,-0.2356,-0.2364,-0.2398,-0.2412,-0.2439,-0.2432,-0.2454,-0.2473,-0.2453,-0.247,-0.2466,-0.246,-0.2474,-0.2479,-0.2468,-0.2486,-0.2488,-0.2491,-0.2491,-0.2484,-0.2487,-0.2491,-0.2447,-0.2447,-0.2446,0,0,-0.234,-0.2356,-0.2374,-0.2399,-0.243,-0.2445,-0.2454,-0.248,-0.2486,-0.2507,-0.2496,-0.25,-0.2508,-0.2506,-0.2506,-0.2536,-0.251,-0.2538,-0.2561,-0.2555,-0.2558,-0.256,-0.2535,-0.2534,-0.2539,-0.2539,-0.2539,0,-0.2332,-0.236,-0.2382,-0.2411,-0.2431,-0.245,-0.2476,-0.2494,-0.2517,-0.2525,-0.2516,-0.253,-0.2523,-0.2539,-0.2548,-0.2545,-0.2531,-0.2541,-0.256,-0.2562,-0.2564,-0.2537,-0.2536,-0.2541,-0.2541,-0.254,-0.254,0,-0.2353,-0.2379,-0.2393,-0.2435,-0.2461,-0.2486,-0.252,-0.2542,-0.255,-0.2563,-0.2582,-0.2576,-0.2581,-0.2583,-0.2574,-0.2589,-0.2571,-0.2566,-0.2545,-0.257,-0.254,-0.2539,-0.2544,-0.2543,-0.2542,-0.2542,0,0,-0.2322,-0.2392,-0.2396,-0.2419,-0.2475,-0.2496,-0.2538,-0.2574,-0.2593,-0.2612,-0.2629,-0.2639,-0.2633,-0.2632,-0.2623,-0.262,-0.2615,-0.2601,-0.26,-0.2573,-0.2589,-0.2525,-0.2517,-0.2615,-0.2616,-0.2616,-0.2559,0,-0.2326,-0.2377,-0.2415,-0.2459,-0.2487,-0.2529,-0.2565,-0.2602,-0.2623,-0.2646,-0.2649,-0.266,-0.2653,-0.2651,-0.2651,-0.2627,-0.2616,-0.263,-0.2572,-0.257,-0.2508,-0.2515,-0.2338,-0.2269,-0.2558,-0.2557,-0.2557,0,-0.2325,-0.2362,-0.2406,-0.2472,-0.2488,-0.2519,-0.2572,-0.2607,-0.2652,-0.2668,-0.2688,-0.269,-0.2696,-0.268,-0.2657,-0.2667,-0.2632,-0.2609,-0.2606,-0.2533,-0.2504,-0.2293,-0.2255,-0.2555,-0.2555,-0.2555,-0.2555,0,-0.2277,-0.235,-0.238,-0.2405,-0.2486,-0.251,-0.2549,-0.2605,-0.2636,-0.2676,-0.2695,-0.2708,-0.2706,-0.2683,-0.2645,-0.265,-0.2605,-0.2602,-0.2509,-0.2503,-0.2333,-0.2313,-0.2576,-0.2576,-0.2576,-0.2576,-0.2577,0,-0.2257,-0.228,-0.2359,-0.2377,-0.2413,-0.248,-0.252,-0.2563,-0.2623,-0.2646,-0.2695,-0.2706,-0.2709,-0.2689,-0.2649,-0.2571,-0.2606,-0.2509,-0.2487,-0.2341,-0.2322,-0.2559,-0.2558,-0.2574,-0.2575,-0.2575,-0.2575,0,-0.2191,-0.2248,-0.2284,-0.2366,-0.2389,-0.241,-0.2497,-0.2521,-0.2596,-0.2626,-0.2639,-0.2699,-0.2671,-0.2658,-0.2608,-0.2563,-0.2501,-0.2461,-0.2283,-0.2241,-0.24,-0.2402,-0.2351,-0.2348,-0.2346,-0.2344,-0.2342,0,-0.2159,-0.2172,-0.2252,-0.2266,-0.2299,-0.235,-0.2379,-0.248,-0.2507,-0.2606,-0.2602,-0.2624,-0.2598,-0.2524,-0.245,-0.2361,-0.2426,-0.2148,-0.2129,-0.2394,-0.2378,-0.2383,-0.2388,-0.191,-0.1905,-0.1901,-0.1898,0,-0.2084,-0.2113,-0.214,-0.2175,-0.2205,-0.2246,-0.2297,-0.2324,-0.2429,-0.2466,-0.249,-0.2486,-0.2445,-0.2283,-0.2198,-0.2124,-0.2153,-0.2062,-0.2371,-0.2008,-0.1978,-0.1963,-0.1982,-0.1861,-0.1865,-0.1868,-0.187,-0.1871,-0.2007,-0.2005,-0.2037,-0.2056,-0.209,-0.2107,-0.2095,-0.216,-0.2188,-0.2197,-0.2292,-0.2218,-0.2201,-0.198,-0.1875,-0.1794,-0.194,-0.1838,-0.1851,-0.1868,-0.184,-0.1809,-0.1654,-0.1657,-0.1659,-0.166,-0.1662,0,-0.1893,-0.1901,-0.1913,-0.1928,-0.1906,-0.1975,-0.2001,-0.1956,-0.1928,-0.1966,-0.1957,-0.1755,-0.1662,-0.1645,-0.1476,-0.1446,-0.1432,-0.1372,-0.1351,-0.1388,-0.1421,-0.1371,-0.106,-0.1058,-0.1057,-0.1055,0,0,-0.1832,-0.1793,-0.1799,-0.1725,-0.1734,-0.1659,-0.164,-0.1594,-0.1581,-0.1495,-0.1453,-0.1569,-0.1602,-0.1333,-0.1272,-0.1139,-0.1248,-0.1079,-0.1563,-0.1575,-0.1605,-0.169,-0.1656,0,0,0,0,0]},{"header":{"parameterUnit":"m.s-1","parameterCategory":2,"la1":30.2991,"la2":30.254,"lo1":-89.0895,"lo2":-89.0444,"dy":0.0017,"dx":0.0017,"nx":28,"ny":28,"refTime":"2026-02-15T03:00:00:Z","depth":"2","parameterNumber":3,"parameterNumberName":"V-component_of_CURRENTS"},"data":[0,0,0,0,0,0,0,0,0,0,0,0,0,0,0,0,0,0,0,0,0,0,0,0,0,0,0,0,0,0,0,0,0,0,0,0,0,0,0,0,0,0,0,0,0,0,0,0,0,0,0,0,0,0,0,0,0,0,-0.0332,-0.0332,0,-0.0269,-0.0268,-0.0267,-0.0219,-0.0219,-0.0218,-0.0218,-0.0112,-0.011,-0.0107,0,0,0,0,0,0,0,0,0,0,0,0,0,-0.0363,-0.0363,-0.0332,-0.0332,-0.0331,-0.0269,-0.0268,-0.0267,-0.0219,-0.0219,-0.0218,-0.0218,-0.0113,-0.011,-0.0107,0,0,0,0,0,0,0,0,0,0,0,0,0,-0.0329,-0.0363,-0.0332,-0.0301,-0.0297,-0.0269,-0.0268,-0.0266,-0.0219,-0.0219,-0.0218,-0.0218,-0.0114,-0.011,-0.0107,-0.0093,0,0,-0.0095,-0.0093,0,0,0,0,0,0,0,0,-0.0331,-0.0328,-0.0306,-0.0303,-0.0299,-0.0252,-0.024,-0.0207,-0.0219,-0.0247,-0.0218,-0.0218,-0.0156,-0.0149,-0.0137,-0.0088,-0.0083,-0.0095,-0.0092,-0.0091,-0.009,0,0,0,0,0,0,0,-0.0333,-0.033,-0.0306,-0.0305,-0.0301,-0.0273,-0.0268,-0.0233,-0.0204,-0.0245,-0.0242,-0.0237,-0.0154,-0.0141,-0.0134,-0.0081,-0.0095,-0.0091,-0.0089,-0.0088,-0.0005,-0.0006,0,0,0,0,0,0,-0.0347,-0.0332,-0.0308,-0.0304,-0.0316,-0.0273,-0.0267,-0.0267,-0.0205,-0.0196,-0.0237,-0.0235,-0.0147,-0.0139,-0.013,-0.0102,-0.0091,-0.0087,-0.0085,-0.0005,-0.0005,-0.0006,0,0,0,0,0,0,-0.0348,-0.0346,-0.031,-0.0317,-0.0311,-0.0273,-0.0273,-0.0266,-0.0252,-0.02,-0.0189,-0.0231,-0.0147,-0.0135,-0.01,-0.0098,-0.0086,-0.0082,-0.0005,-0.0005,-0.0006,-0.0051,0,0,0,0,0,0,-0.0349,-0.0346,-0.0351,-0.0319,-0.0311,-0.03,-0.0273,-0.0265,-0.025,-0.0246,-0.0191,-0.018,-0.0146,-0.0106,-0.0096,-0.0092,-0.0079,-0.0005,-0.0005,-0.0005,-0.0049,-0.0053,-0.0055,0,0,0,0,0,-0.0351,-0.0364,-0.0352,-0.0349,-0.0319,-0.03,-0.0294,-0.0264,-0.0251,-0.0249,-0.0209,-0.0182,-0.01,-0.0103,-0.0091,-0.0087,-0.0005,-0.0005,-0.0005,-0.0048,-0.0052,-0.0055,0,0,0,0,0,0,-0.038,-0.0359,-0.0346,-0.0351,-0.0329,-0.0293,-0.029,-0.0269,-0.0237,-0.0232,-0.0181,-0.0168,-0.0137,-0.0108,-0.0112,-0.0064,-0.0049,-0.0047,-0.0085,-0.0088,-0.0091,-0.0105,-0.0076,0,0,0,0,0,-0.039,-0.0393,-0.0365,-0.0369,-0.0361,-0.0326,-0.0314,-0.0295,-0.0263,-0.0248,-0.0208,-0.0167,-0.0129,-0.0107,-0.0072,-0.0045,-0.0008,-0.0035,-0.0038,-0.0041,-0.0044,0.0013,0.0015,-0.0006,-0.0006,-0.0006,0,0,-0.0402,-0.0392,-0.0393,-0.0375,-0.0355,-0.0351,-0.0318,-0.0306,-0.0297,-0.0241,-0.0216,-0.0176,-0.0125,-0.0095,-0.0078,-0.0069,-0.0016,-0.0041,-0.0044,-0.0045,0.0014,0.0016,0.0018,-0.0006,-0.0006,-0.0006,0,0,-0.0434,-0.0419,-0.0434,-0.0419,-0.0398,-0.0374,-0.0374,-0.0338,-0.0316,-0.0289,-0.0245,-0.0205,-0.0153,-0.0111,-0.0084,-0.0083,-0.0036,-0.0075,-0.0096,-0.004,-0.0038,-0.0035,0.0012,0.0019,-0.0074,-0.0074,-0.0074,0,-0.0451,-0.0464,-0.0434,-0.0443,-0.0435,-0.0388,-0.0399,-0.0368,-0.0325,-0.0304,-0.0289,-0.0201,-0.0159,-0.0109,-0.011,-0.0089,-0.0054,-0.0086,-0.0044,-0.004,-0.0037,0.0011,0.0019,-0.0076,-0.0076,-0.0076,-0.0075,0,-0.0492,-0.0499,-0.0506,-0.05,-0.0486,-0.0487,-0.0444,-0.0423,-0.039,-0.0353,-0.03,-0.0238,-0.0185,-0.0164,-0.0136,-0.0092,-0.0074,-0.0056,-0.0036,-0.0038,0.0013,0.0022,-0.0079,-0.0079,-0.0078,-0.0077,0,0,-0.0536,-0.0537,-0.0539,-0.0548,-0.0517,-0.0513,-0.049,-0.0455,-0.0437,-0.0381,-0.0348,-0.0278,-0.0238,-0.0205,-0.0157,-0.0107,-0.0053,-0.0078,-0.0074,-0.0035,0.0066,0.0101,0.0116,-0.0027,-0.0026,-0.0024,0.0091,0,-0.0578,-0.0616,-0.0595,-0.0617,-0.0632,-0.058,-0.0563,-0.052,-0.0469,-0.0423,-0.0341,-0.0294,-0.0254,-0.0227,-0.0171,-0.008,-0.003,-0.0086,0.0064,0.0068,0.0099,0.0128,0.0088,0.019,0.01,0.0102,0.0103,0,-0.0624,-0.0644,-0.0682,-0.0681,-0.0681,-0.068,-0.0641,-0.0618,-0.0533,-0.0491,-0.042,-0.0352,-0.0265,-0.0236,-0.0081,-0.0119,-0.0037,0.0034,0.004,0.0096,0.0122,0.0178,0.0211,0.012,0.0119,0.0117,0.0116,0,-0.068,-0.0701,-0.0737,-0.0737,-0.0727,-0.0726,-0.071,-0.0642,-0.062,-0.053,-0.0497,-0.0383,-0.032,-0.0203,-0.0053,-0.0067,0.0121,0.0124,0.0234,0.0238,0.0245,0.0247,0.0228,0.0228,0.0228,0.0228,0.0227,0,-0.0736,-0.0761,-0.0769,-0.0791,-0.0823,-0.0786,-0.0791,-0.0751,-0.0687,-0.0658,-0.0541,-0.0484,-0.0309,-0.0177,-0.0055,0.0129,0.0125,0.024,0.0276,0.0228,0.0227,0.0196,0.0191,0.0232,0.0231,0.023,0.0229,0,-0.0793,-0.0798,-0.0842,-0.0852,-0.0856,-0.0878,-0.0863,-0.0857,-0.0784,-0.074,-0.0713,-0.055,-0.0369,-0.0184,0.0026,0.0132,0.0297,0.036,0.0291,0.0317,0.0372,0.0363,0.049,0.0492,0.0494,0.0496,0.0497,0,-0.0827,-0.0859,-0.09,-0.0932,-0.0942,-0.0963,-0.0974,-0.0919,-0.0901,-0.0777,-0.0757,-0.0569,-0.0423,-0.0089,0.0134,0.0372,0.0366,0.0464,0.0434,0.038,0.0403,0.039,0.0379,0.0425,0.0425,0.0426,0.0426,0,-0.089,-0.0904,-0.0941,-0.1015,-0.1047,-0.1075,-0.1078,-0.1081,-0.0999,-0.0933,-0.0805,-0.0675,-0.034,-0.007,0.0247,0.0375,0.0423,0.0484,0.0467,0.0361,0.0328,0.0346,0.0336,0.0431,0.0431,0.043,0.043,0.043,-0.0928,-0.0974,-0.1027,-0.1091,-0.1134,-0.1169,-0.1183,-0.1156,-0.1116,-0.0989,-0.0859,-0.0632,-0.0363,0.0092,0.0311,0.0512,0.0504,0.0541,0.0535,0.053,0.0499,0.0471,0.0595,0.0595,0.0596,0.0596,0.0596,0,-0.0974,-0.1025,-0.1098,-0.117,-0.1227,-0.1227,-0.1236,-0.1209,-0.1153,-0.1001,-0.0843,-0.0536,-0.022,0.0063,0.0384,0.0574,0.0548,0.0598,0.0519,0.0513,0.0508,0.0472,0.0563,0.0564,0.0564,0.0565,0,0,-0.0998,-0.1078,-0.1119,-0.1227,-0.1276,-0.1314,-0.1313,-0.1241,-0.1124,-0.0959,-0.0784,-0.0546,-0.0205,0.0012,0.0252,0.0419,0.0415,0.0433,0.0438,0.031,0.0303,0.0455,0.0392,0,0,0,0,0]}],[{"header":{"parameterUnit":"m.s-1","parameterCategory":2,"la1":30.2991,"la2":30.254,"lo1":-89.0895,"lo2":-89.0444,"dy":0.0017,"dx":0.0017,"nx":28,"ny":28,"refTime":"2026-02-15T03:00:00:Z","depth":"4","parameterNumber":2,"parameterNumberName":"U-component_of_CURRENTS"},"data":[0,0,0,0,0,0,0,0,0,0,0,0,0,0,0,0,0,0,0,0,0,0,0,0,0,0,0,0,0,0,0,0,0,0,0,0,0,0,0,0,0,0,0,0,0,0,0,0,0,0,0,0,0,0,0,0,0,0,-0.1602,-0.1603,0,-0.1663,-0.1664,-0.1664,-0.1704,-0.1704,-0.1704,-0.1705,-0.1761,-0.1762,-0.1763,0,0,0,0,0,0,0,0,0,0,0,0,0,-0.1514,-0.1515,-0.1602,-0.1603,-0.1604,-0.1663,-0.1664,-0.1665,-0.1704,-0.1704,-0.1705,-0.1705,-0.1761,-0.1762,-0.1763,0,0,0,0,0,0,0,0,0,0,0,0,0,-0.1559,-0.1515,-0.1602,-0.1632,-0.1635,-0.1663,-0.1664,-0.1665,-0.1703,-0.1704,-0.1705,-0.1705,-0.176,-0.1762,-0.1764,-0.1762,0,0,-0.1769,-0.177,0,0,0,0,0,0,0,0,-0.1557,-0.1562,-0.1627,-0.163,-0.1634,-0.1678,-0.1653,-0.1698,-0.1703,-0.1676,-0.1705,-0.1705,-0.1734,-0.1737,-0.1745,-0.1765,-0.1767,-0.1769,-0.177,-0.1771,-0.1771,0,0,0,0,0,0,0,-0.1554,-0.156,-0.1625,-0.1628,-0.1632,-0.164,-0.1647,-0.1662,-0.1699,-0.1678,-0.1682,-0.1691,-0.1735,-0.1743,-0.1747,-0.1768,-0.1769,-0.177,-0.1771,-0.1772,-0.186,-0.1861,0,0,0,0,0,0,-0.1549,-0.1557,-0.1623,-0.1627,-0.1598,-0.1642,-0.1649,-0.1662,-0.1699,-0.1706,-0.169,-0.1693,-0.174,-0.1745,-0.1749,-0.1819,-0.1771,-0.1772,-0.1773,-0.1859,-0.186,-0.1862,0,0,0,0,0,0,-0.1547,-0.1555,-0.162,-0.1594,-0.1604,-0.1643,-0.1656,-0.1663,-0.17,-0.1709,-0.1715,-0.1725,-0.1741,-0.1747,-0.1789,-0.1819,-0.1773,-0.1775,-0.1857,-0.1859,-0.1861,-0.1915,0,0,0,0,0,0,-0.1544,-0.1554,-0.1574,-0.1594,-0.1605,-0.1656,-0.1656,-0.1664,-0.1704,-0.1708,-0.174,-0.1744,-0.1742,-0.1787,-0.1791,-0.1821,-0.1776,-0.1855,-0.1858,-0.186,-0.1912,-0.1919,-0.1925,0,0,0,0,0,-0.1541,-0.1562,-0.1574,-0.1583,-0.1627,-0.1658,-0.1665,-0.1692,-0.1705,-0.1727,-0.1751,-0.1745,-0.1805,-0.1789,-0.1794,-0.1825,-0.1854,-0.1857,-0.186,-0.1909,-0.1918,-0.1925,0,0,0,0,0,0,-0.1534,-0.1569,-0.1583,-0.1614,-0.1644,-0.1665,-0.1692,-0.1709,-0.1745,-0.1758,-0.1763,-0.1769,-0.1816,-0.1814,-0.1796,-0.1857,-0.1828,-0.1832,-0.1864,-0.1872,-0.1878,-0.1875,-0.1777,0,0,0,0,0,-0.1541,-0.1568,-0.1598,-0.1627,-0.1644,-0.1674,-0.1695,-0.1716,-0.1744,-0.1762,-0.1785,-0.1807,-0.1827,-0.1845,-0.1861,-0.1897,-0.1875,-0.1919,-0.1926,-0.1931,-0.1932,-0.1926,-0.1932,-0.1871,-0.1871,-0.1871,0,0,-0.1547,-0.157,-0.1587,-0.1628,-0.1654,-0.1687,-0.1689,-0.1732,-0.1766,-0.1761,-0.1822,-0.1834,-0.1842,-0.1881,-0.1902,-0.1887,-0.1937,-0.1935,-0.194,-0.1937,-0.193,-0.1935,-0.194,-0.1873,-0.1873,-0.1873,0,0,-0.1562,-0.1594,-0.162,-0.165,-0.1696,-0.1715,-0.1734,-0.1777,-0.1806,-0.1856,-0.1861,-0.1892,-0.1931,-0.1939,-0.1945,-0.1998,-0.1971,-0.201,-0.2043,-0.2038,-0.2043,-0.2046,-0.2022,-0.2023,-0.2014,-0.2014,-0.2014,0,-0.157,-0.1605,-0.1633,-0.1667,-0.1696,-0.1732,-0.1767,-0.18,-0.1854,-0.1877,-0.1886,-0.1944,-0.1954,-0.1988,-0.2009,-0.2012,-0.1999,-0.2012,-0.2045,-0.2049,-0.2052,-0.2025,-0.2026,-0.2017,-0.2016,-0.2016,-0.2016,0,-0.1595,-0.1638,-0.1658,-0.1712,-0.1747,-0.1786,-0.1831,-0.1876,-0.1915,-0.194,-0.1996,-0.2011,-0.204,-0.2053,-0.205,-0.2082,-0.2062,-0.2053,-0.2022,-0.2061,-0.2031,-0.203,-0.2021,-0.202,-0.2019,-0.2018,0,0,-0.1573,-0.1659,-0.167,-0.1704,-0.1776,-0.1803,-0.1869,-0.1924,-0.1963,-0.2016,-0.2057,-0.2099,-0.2108,-0.2115,-0.2118,-0.2121,-0.213,-0.2103,-0.2101,-0.2073,-0.2108,-0.1984,-0.1971,-0.2129,-0.213,-0.213,-0.2077,0,-0.1586,-0.1651,-0.1695,-0.1764,-0.1799,-0.1858,-0.1911,-0.1969,-0.2015,-0.2063,-0.2089,-0.2128,-0.2131,-0.2148,-0.2155,-0.2136,-0.2132,-0.2144,-0.208,-0.2078,-0.1958,-0.1967,-0.2132,-0.2076,-0.2076,-0.2076,-0.2076,0,-0.1588,-0.1635,-0.1703,-0.1789,-0.1811,-0.1862,-0.1945,-0.1997,-0.2067,-0.2103,-0.2147,-0.2165,-0.2192,-0.2182,-0.2171,-0.2181,-0.2153,-0.2131,-0.2128,-0.1991,-0.1952,-0.2032,-0.2074,-0.2074,-0.2074,-0.2075,-0.2075,0,-0.1538,-0.1635,-0.169,-0.1722,-0.1825,-0.1873,-0.193,-0.201,-0.2052,-0.2126,-0.2156,-0.2191,-0.2207,-0.2191,-0.2164,-0.217,-0.213,-0.2126,-0.1984,-0.1975,-0.2079,-0.2076,-0.2108,-0.2108,-0.2109,-0.2109,-0.2109,0,-0.1514,-0.1562,-0.1678,-0.1707,-0.1774,-0.1855,-0.1926,-0.1987,-0.2066,-0.2095,-0.217,-0.218,-0.2212,-0.2198,-0.2166,-0.2064,-0.213,-0.1981,-0.1951,-0.2103,-0.2103,-0.2078,-0.2075,-0.2107,-0.2107,-0.2107,-0.2108,0,-0.1443,-0.1524,-0.1591,-0.1712,-0.1752,-0.1798,-0.1917,-0.1952,-0.2047,-0.2085,-0.2108,-0.2174,-0.2148,-0.2154,-0.2115,-0.2045,-0.1973,-0.1923,-0.2076,-0.2057,-0.1819,-0.182,-0.1746,-0.1741,-0.1737,-0.1734,-0.1731,0,-0.1408,-0.1439,-0.1574,-0.161,-0.167,-0.1756,-0.1802,-0.1922,-0.1947,-0.2051,-0.2039,-0.2074,-0.2094,-0.1931,-0.1962,-0.1882,-0.1864,-0.1815,-0.1825,-0.1802,-0.1782,-0.179,-0.1796,-0.1724,-0.1723,-0.1722,-0.1721,0,-0.1331,-0.1395,-0.1447,-0.1523,-0.1587,-0.1646,-0.172,-0.1729,-0.184,-0.1951,-0.1911,-0.1891,-0.1861,-0.1825,-0.1782,-0.173,-0.184,-0.1771,-0.178,-0.1789,-0.1775,-0.176,-0.1772,-0.1707,-0.1709,-0.171,-0.1711,0,-0.1268,-0.1284,-0.1358,-0.1407,-0.148,-0.1494,-0.1563,-0.1583,-0.1628,-0.1745,-0.1722,-0.1763,-0.183,-0.1744,-0.1701,-0.1644,-0.1617,-0.1558,-0.1577,-0.1593,-0.157,-0.1531,-0.1351,0,0,0,0,0,-0.1193,-0.1191,-0.123,-0.1276,-0.1341,-0.1378,-0.1477,-0.1546,-0.1658,-0.1578,-0.1647,-0.161,-0.1559,-0.1585,-0.1489,-0.163,-0.1625,-0.1514,-0.1568,-0.1627,-0.1644,-0.1631,0,0,0,0,0,0,-0.114,-0.1172,-0.1182,-0.1143,-0.1145,-0.1198,-0.1253,-0.134,-0.1308,-0.1429,-0.1404,-0.1499,-0.1469,-0.1574,-0.1448,-0.1455,-0.1453,-0.1551,-0.1547,-0.1618,-0.1633,-0.1646,-0.1639,0,0,0,0,0]},{"header":{"parameterUnit":"m.s-1","parameterCategory":2,"la1":30.2991,"la2":30.254,"lo1":-89.0895,"lo2":-89.0444,"dy":0.0017,"dx":0.0017,"nx":28,"ny":28,"refTime":"2026-02-15T03:00:00:Z","depth":"4","parameterNumber":3,"parameterNumberName":"V-component_of_CURRENTS"},"data":[0,0,0,0,0,0,0,0,0,0,0,0,0,0,0,0,0,0,0,0,0,0,0,0,0,0,0,0,0,0,0,0,0,0,0,0,0,0,0,0,0,0,0,0,0,0,0,0,0,0,0,0,0,0,0,0,0,0,-0.0306,-0.0305,0,-0.0269,-0.0268,-0.0268,-0.024,-0.024,-0.024,-0.024,-0.0165,-0.0163,-0.0161,0,0,0,0,0,0,0,0,0,0,0,0,0,-0.0314,-0.0314,-0.0306,-0.0305,-0.0305,-0.0269,-0.0268,-0.0268,-0.024,-0.024,-0.024,-0.024,-0.0165,-0.0163,-0.0161,0,0,0,0,0,0,0,0,0,0,0,0,0,-0.0296,-0.0314,-0.0306,-0.0288,-0.0286,-0.0269,-0.0268,-0.0268,-0.024,-0.024,-0.024,-0.0239,-0.0166,-0.0163,-0.0161,-0.0148,0,0,-0.0152,-0.0151,0,0,0,0,0,0,0,0,-0.0297,-0.0296,-0.0291,-0.0289,-0.0287,-0.026,-0.0244,-0.0226,-0.024,-0.0256,-0.024,-0.0239,-0.0194,-0.0189,-0.0181,-0.0145,-0.0141,-0.0152,-0.015,-0.0149,-0.0148,0,0,0,0,0,0,0,-0.0298,-0.0297,-0.029,-0.029,-0.0288,-0.0268,-0.0266,-0.024,-0.0225,-0.0255,-0.0253,-0.0251,-0.0192,-0.0184,-0.0179,-0.014,-0.0152,-0.015,-0.0148,-0.0147,-0.0087,-0.0087,0,0,0,0,0,0,-0.0308,-0.0298,-0.0291,-0.0289,-0.0293,-0.0269,-0.0266,-0.0268,-0.0226,-0.022,-0.0251,-0.025,-0.0189,-0.0183,-0.0177,-0.0159,-0.0149,-0.0146,-0.0145,-0.0087,-0.0087,-0.0087,0,0,0,0,0,0,-0.0308,-0.0307,-0.0293,-0.0293,-0.029,-0.0269,-0.0271,-0.0267,-0.0262,-0.0224,-0.0217,-0.025,-0.0189,-0.018,-0.0157,-0.0156,-0.0145,-0.0143,-0.0087,-0.0087,-0.0087,-0.0123,0,0,0,0,0,0,-0.0308,-0.0308,-0.0315,-0.0294,-0.0291,-0.0289,-0.0272,-0.0267,-0.0261,-0.0259,-0.0221,-0.0214,-0.0188,-0.0161,-0.0154,-0.0152,-0.0141,-0.0087,-0.0087,-0.0087,-0.0122,-0.0125,-0.0127,0,0,0,0,0,-0.0309,-0.0321,-0.0316,-0.0315,-0.0301,-0.029,-0.0286,-0.0269,-0.0261,-0.0263,-0.0235,-0.0215,-0.0157,-0.0159,-0.015,-0.0147,-0.0087,-0.0087,-0.0087,-0.0121,-0.0124,-0.0127,0,0,0,0,0,0,-0.0329,-0.0319,-0.0313,-0.0322,-0.0309,-0.0286,-0.0287,-0.0274,-0.0254,-0.0252,-0.0215,-0.0206,-0.0185,-0.0163,-0.0166,-0.0131,-0.0119,-0.0117,-0.0147,-0.015,-0.0152,-0.0161,-0.0138,0,0,0,0,0,-0.0338,-0.0345,-0.0328,-0.0336,-0.0332,-0.031,-0.0305,-0.0293,-0.0272,-0.0264,-0.0236,-0.0207,-0.0179,-0.0163,-0.0137,-0.0118,-0.009,-0.0111,-0.0113,-0.0116,-0.0117,-0.0074,-0.0072,-0.0088,-0.0088,-0.0088,0,0,-0.0348,-0.0344,-0.0348,-0.034,-0.033,-0.0329,-0.0306,-0.0303,-0.0299,-0.0258,-0.0245,-0.0215,-0.0176,-0.0155,-0.0143,-0.0136,-0.0097,-0.0116,-0.0118,-0.0118,-0.0074,-0.0072,-0.007,-0.0088,-0.0088,-0.0088,0,0,-0.0373,-0.0369,-0.0382,-0.0374,-0.0364,-0.0349,-0.035,-0.0329,-0.0316,-0.03,-0.0268,-0.0238,-0.0202,-0.0169,-0.0148,-0.0149,-0.0114,-0.0143,-0.0158,-0.0116,-0.0115,-0.0113,-0.008,-0.0075,-0.0142,-0.0142,-0.0142,0,-0.0387,-0.0401,-0.0383,-0.0391,-0.039,-0.0361,-0.0371,-0.0352,-0.0325,-0.0312,-0.0303,-0.0238,-0.0207,-0.0169,-0.0169,-0.0154,-0.0128,-0.015,-0.0119,-0.0117,-0.0114,-0.0081,-0.0075,-0.0144,-0.0144,-0.0144,-0.0143,0,-0.0416,-0.0428,-0.0435,-0.0436,-0.0429,-0.0434,-0.0408,-0.0397,-0.0377,-0.0353,-0.0316,-0.0269,-0.0231,-0.0214,-0.0191,-0.0156,-0.0144,-0.013,-0.0113,-0.0115,-0.008,-0.0073,-0.0147,-0.0146,-0.0145,-0.0145,0,0,-0.0446,-0.0456,-0.0459,-0.047,-0.0455,-0.0456,-0.0444,-0.0424,-0.0416,-0.0377,-0.0357,-0.0301,-0.0272,-0.0247,-0.0208,-0.0168,-0.0128,-0.0145,-0.0142,-0.0115,-0.0041,-0.0038,-0.0029,-0.0108,-0.0107,-0.0106,-0.0025,0,-0.0475,-0.0509,-0.0499,-0.0524,-0.0538,-0.0508,-0.0502,-0.0476,-0.0444,-0.0415,-0.0351,-0.0319,-0.0285,-0.0266,-0.022,-0.015,-0.0111,-0.0152,-0.0041,-0.0038,-0.0036,-0.0022,-0.0102,-0.002,-0.0018,-0.0017,-0.0016,0,-0.0505,-0.0525,-0.0562,-0.0574,-0.0576,-0.0585,-0.0569,-0.0557,-0.0501,-0.0473,-0.0421,-0.0369,-0.0301,-0.0276,-0.0156,-0.0184,-0.012,-0.0064,-0.0059,-0.0038,-0.0022,-0.0015,-0.0003,-0.0004,-0.0005,-0.0006,-0.0007,0,-0.0538,-0.0566,-0.0601,-0.0606,-0.0613,-0.0622,-0.0619,-0.0579,-0.057,-0.0508,-0.0488,-0.0399,-0.0354,-0.0259,-0.0142,-0.015,-0.0008,-0.0003,0.0062,0.0063,0.0051,0.0049,0.0079,0.0079,0.0079,0.0079,0.0079,0,-0.0569,-0.0598,-0.0626,-0.0646,-0.0686,-0.0668,-0.0688,-0.0665,-0.0629,-0.0614,-0.0525,-0.0486,-0.0347,-0.0247,-0.0148,-0.0018,-0.001,0.0064,0.0088,0.0033,0.0028,0.0056,0.0053,0.0082,0.0081,0.0081,0.008,0,-0.0597,-0.0615,-0.0662,-0.0692,-0.0707,-0.0735,-0.075,-0.0754,-0.071,-0.0685,-0.0666,-0.0547,-0.0412,-0.0267,-0.0102,-0.0029,0.0097,0.0141,0.0072,0.009,0.0138,0.0132,0.0213,0.0213,0.0214,0.0215,0.0215,0,-0.0612,-0.0641,-0.0707,-0.0745,-0.0766,-0.0803,-0.0826,-0.0802,-0.0796,-0.0719,-0.0704,-0.0571,-0.0477,-0.0234,-0.0091,0.0108,0.0133,0.0188,0.0163,0.0139,0.0154,0.0146,0.0139,0.0216,0.0217,0.0217,0.0217,0,-0.064,-0.067,-0.071,-0.0794,-0.0841,-0.0882,-0.0906,-0.0907,-0.0862,-0.0829,-0.0715,-0.0577,-0.0419,-0.0232,-0.0069,0.0068,0.0147,0.0196,0.0195,0.0172,0.0145,0.0157,0.0149,0.022,0.0219,0.0219,0.0219,0,-0.0659,-0.0699,-0.0762,-0.0828,-0.0896,-0.0934,-0.0944,-0.0918,-0.0899,-0.0802,-0.0768,-0.0582,-0.0473,-0.0252,-0.0106,0.0037,0.0061,0.009,0.0095,0.0093,0.0034,-0.0019,0.003,0,0,0,0,0,-0.067,-0.0717,-0.0789,-0.0861,-0.0928,-0.096,-0.0982,-0.0974,-0.0934,-0.0858,-0.0806,-0.065,-0.0407,-0.0298,-0.0154,-0.0114,0.0068,0.0056,0.0098,0.0234,0.0231,0.0182,0,0,0,0,0,0,-0.0678,-0.0749,-0.0787,-0.087,-0.0922,-0.0982,-0.0996,-0.0971,-0.0913,-0.0853,-0.0717,-0.0632,-0.0392,-0.0486,-0.0154,-0.0111,-0.007,0.0176,0.0179,0.0235,0.0233,0.023,0.018,0,0,0,0,0]}]]